contact:dominique.lefevre@mio.osupytheas.fr, maurice.libes@osupytheas.fr, didier.mallarino@osupytheas.fr
Project:EMSO http://www.emso-fr.org/EMSO-France
Depth: 2436.0 m
Title:EMSO Ligure Ouest : Data MII capteur AQUADOPP
Date,Latitude,Longitude,X_East,Y_North,Z_Up,Amplitude_X,Amplitude_Y,Amplitude_Z,Batterie,SoundSpeed,Heading,Pitch,Roll,Pressure,TIS,Speed,Direction
, degrees North, degrees East, m.s-1, m.s-1,m.s-1, 1, 1, 1, Volt, m.s-1, degree, degree, degree, dbar, degree_C, m.s-1, degree
2022-11-25T00:04:03,42.805,6.029,0.034,-0.026,-0.017,101.0,103.0,100.0,13.3,1505.1,323.2,-0.8,1.8,2471.479,13.27,0.042,127.4
2022-11-25T00:07:03,42.805,6.029,0.056,0.014,0.065,102.0,105.0,100.0,13.4,1505.2,322.6,-0.8,1.8,2471.439,13.28,0.057,76.0
2022-11-25T00:10:03,42.805,6.029,0.037,-0.005,-0.021,102.0,103.0,101.0,13.4,1505.2,324.1,-0.8,1.8,2471.34,13.28,0.037,97.7
2022-11-25T00:13:03,42.805,6.029,0.044,0.004,0.047,101.0,105.0,100.0,13.3,1505.2,329.2,-0.8,1.8,2471.28,13.28,0.044,84.8
2022-11-25T00:16:03,42.805,6.029,0.042,0.002,-0.016,103.0,104.0,99.0,13.4,1505.2,318.6,-0.8,1.9,2471.232,13.28,0.042,87.3
2022-11-25T00:19:03,42.805,6.029,0.061,-0.039,-0.023,102.0,103.0,100.0,13.4,1505.2,328.7,-0.7,1.8,2471.171,13.28,0.072,122.6
2022-11-25T00:22:03,42.805,6.029,0.02,0.0,-0.001,102.0,102.0,101.0,13.4,1505.2,324.3,-0.8,1.8,2471.139,13.28,0.02,90.0
2022-11-25T00:25:03,42.805,6.029,0.059,-0.024,0.0,101.0,103.0,99.0,13.4,1505.2,323.4,-0.7,1.8,2471.139,13.28,0.063,112.1
2022-11-25T00:28:03,42.805,6.029,0.049,-0.033,-0.013,100.0,103.0,100.0,13.4,1505.2,318.4,-0.8,1.8,2471.157,13.28,0.059,124.0
2022-11-25T00:31:03,42.805,6.029,0.061,-0.005,0.043,101.0,103.0,100.0,13.3,1505.2,334.8,-0.8,1.8,2471.125,13.28,0.061,94.7
2022-11-25T00:34:03,42.805,6.029,0.048,-0.011,-0.003,99.0,104.0,99.0,13.4,1505.2,325.3,-0.8,1.8,2471.096,13.28,0.049,102.9
2022-11-25T00:37:03,42.805,6.029,0.043,0.003,0.035,99.0,103.0,98.0,13.4,1505.2,326.0,-0.7,1.8,2471.061,13.28,0.043,86.0
2022-11-25T00:40:03,42.805,6.029,0.054,0.0,-0.001,100.0,104.0,98.0,13.4,1505.2,321.8,-0.8,1.8,2471.081,13.28,0.053,90.0
2022-11-25T00:43:03,42.805,6.029,0.04,-0.023,0.013,100.0,102.0,99.0,13.4,1505.2,325.8,-0.7,1.8,2471.086,13.28,0.046,119.9
2022-11-25T00:46:03,42.805,6.029,0.053,-0.029,-0.004,100.0,103.0,100.0,13.3,1505.2,329.2,-0.8,1.8,2471.033,13.28,0.06,118.7
2022-11-25T00:49:03,42.805,6.029,0.058,-0.01,0.023,100.0,101.0,99.0,13.4,1505.2,326.3,-0.8,1.8,2471.01,13.28,0.058,99.8
2022-11-25T00:52:03,42.805,6.029,0.054,-0.044,-0.034,99.0,101.0,99.0,13.4,1505.2,330.8,-0.8,1.8,2471.027,13.28,0.069,129.2
2022-11-25T00:55:03,42.805,6.029,0.072,-0.002,0.014,99.0,101.0,99.0,13.3,1505.2,322.7,-0.8,1.8,2471.032,13.28,0.072,91.6
2022-11-25T00:58:03,42.805,6.029,0.033,0.014,0.002,100.0,101.0,98.0,13.4,1505.2,328.4,-0.8,1.8,2471.024,13.28,0.035,67.0
2022-11-25T01:04:03,42.805,6.029,0.089,0.014,-0.016,102.0,105.0,100.0,13.4,1505.2,320.4,-0.7,1.8,2471.06,13.28,0.09,81.1
2022-11-25T01:07:03,42.805,6.029,0.053,-0.023,0.014,99.0,100.0,100.0,13.4,1505.2,322.2,-0.8,1.8,2471.081,13.28,0.057,113.5
2022-11-25T01:10:03,42.805,6.029,0.042,-0.004,0.002,99.0,100.0,99.0,13.4,1505.2,321.7,-0.7,1.8,2471.07,13.28,0.042,95.4
2022-11-25T01:13:03,42.805,6.029,0.062,-0.019,0.019,99.0,101.0,99.0,13.4,1505.2,325.4,-0.7,1.8,2471.032,13.28,0.064,107.0
2022-11-25T01:16:03,42.805,6.029,0.092,-0.028,0.023,99.0,102.0,98.0,13.4,1505.2,326.8,-0.8,1.8,2471.046,13.28,0.096,106.9
2022-11-25T01:19:03,42.805,6.029,0.076,-0.029,-0.007,100.0,103.0,97.0,13.4,1505.2,334.3,-0.8,1.8,2471.077,13.28,0.081,110.9
2022-11-25T01:22:03,42.805,6.029,0.031,-0.009,-0.015,97.0,101.0,99.0,13.4,1505.2,329.0,-0.8,1.8,2471.053,13.28,0.032,106.2
2022-11-25T01:25:03,42.805,6.029,0.049,-0.012,0.02,99.0,100.0,100.0,13.4,1505.2,332.0,-0.8,1.8,2471.042,13.28,0.05,103.8
2022-11-25T01:28:03,42.805,6.029,0.084,-0.039,-0.031,99.0,101.0,98.0,13.3,1505.2,327.2,-0.7,1.8,2471.056,13.28,0.092,114.9
2022-11-25T01:31:03,42.805,6.029,0.045,-0.023,0.003,100.0,99.0,99.0,13.4,1505.2,328.6,-0.8,1.8,2471.032,13.28,0.05,117.1
2022-11-25T01:34:03,42.805,6.029,0.048,0.001,0.031,100.0,102.0,97.0,13.3,1505.2,324.5,-0.8,1.8,2471.009,13.28,0.048,88.8
2022-11-25T01:37:03,42.805,6.029,0.084,-0.036,0.021,99.0,100.0,99.0,13.4,1505.2,323.4,-0.8,1.9,2471.017,13.28,0.091,113.2
2022-11-25T01:40:03,42.805,6.029,0.034,0.009,0.027,100.0,101.0,99.0,13.4,1505.2,324.2,-0.8,1.8,2471.042,13.28,0.035,75.2
2022-11-25T01:43:03,42.805,6.029,0.057,-0.018,0.004,99.0,101.0,99.0,13.4,1505.2,329.1,-0.7,1.8,2471.026,13.28,0.059,107.5
2022-11-25T01:46:03,42.805,6.029,0.042,-0.02,0.001,99.0,101.0,99.0,13.4,1505.2,330.8,-0.8,1.8,2471.007,13.28,0.046,115.5
2022-11-25T01:49:03,42.805,6.029,0.0,0.0,0.017,98.0,102.0,99.0,13.4,1505.2,320.8,-0.8,1.8,2471.045,13.28,0.0,0.0
2022-11-25T01:52:03,42.805,6.029,0.035,-0.059,-0.039,99.0,102.0,98.0,13.4,1505.2,329.9,-0.7,1.8,2471.034,13.28,0.068,149.3
2022-11-25T01:55:03,42.805,6.029,0.053,-0.036,-0.012,99.0,101.0,99.0,13.4,1505.2,331.3,-0.7,1.9,2471.028,13.28,0.064,124.2
2022-11-25T01:58:03,42.805,6.029,0.037,-0.005,0.022,98.0,100.0,99.0,13.3,1505.2,324.0,-0.7,1.9,2471.01,13.28,0.037,97.7
2022-11-25T02:04:03,42.805,6.029,0.065,-0.012,-0.037,97.0,102.0,99.0,13.4,1505.2,316.8,-0.8,1.8,2471.089,13.28,0.066,100.5
2022-11-25T02:07:03,42.805,6.029,0.033,-0.017,-0.007,97.0,102.0,100.0,13.4,1505.2,331.7,-0.7,1.8,2471.083,13.28,0.037,117.3
2022-11-25T02:10:03,42.805,6.029,0.026,-0.007,-0.015,101.0,101.0,100.0,13.3,1505.2,328.4,-0.7,1.8,2471.057,13.28,0.026,105.1
2022-11-25T02:13:03,42.805,6.029,0.084,-0.066,-0.044,98.0,101.0,99.0,13.4,1505.2,326.6,-0.8,1.8,2471.087,13.28,0.106,128.2
2022-11-25T02:16:03,42.805,6.029,0.026,0.01,0.027,99.0,101.0,99.0,13.3,1505.2,320.3,-0.7,1.8,2471.044,13.28,0.027,69.0
2022-11-25T02:19:03,42.805,6.029,0.014,-0.017,-0.011,100.0,101.0,99.0,13.4,1505.2,333.7,-0.7,1.8,2471.079,13.28,0.022,140.5
2022-11-25T02:22:03,42.805,6.029,0.03,-0.029,-0.015,99.0,101.0,100.0,13.4,1505.2,324.2,-0.8,1.8,2471.069,13.28,0.041,134.0
2022-11-25T02:25:03,42.805,6.029,0.048,-0.018,0.005,98.0,103.0,98.0,13.3,1505.2,318.6,-0.8,1.8,2471.057,13.28,0.051,110.6
2022-11-25T02:28:03,42.805,6.029,0.024,-0.009,0.004,100.0,100.0,98.0,13.4,1505.2,334.8,-0.7,1.8,2471.032,13.28,0.025,110.6
2022-11-25T02:31:03,42.805,6.029,0.029,0.01,-0.004,99.0,100.0,100.0,13.3,1505.2,328.0,-0.8,1.8,2471.032,13.28,0.03,71.0
2022-11-25T02:34:03,42.805,6.029,0.041,-0.018,0.0,99.0,101.0,99.0,13.3,1505.2,320.6,-0.7,1.8,2471.024,13.28,0.044,113.7
2022-11-25T02:37:03,42.805,6.029,0.03,-0.035,-0.023,100.0,102.0,99.0,13.4,1505.2,333.4,-0.7,1.8,2471.044,13.28,0.046,139.4
2022-11-25T02:40:03,42.805,6.029,0.032,-0.025,-0.015,99.0,100.0,99.0,13.3,1505.2,332.7,-0.7,1.8,2471.028,13.28,0.04,128.0
2022-11-25T02:43:03,42.805,6.029,0.019,0.0,-0.009,98.0,103.0,100.0,13.3,1505.2,323.9,-0.8,1.8,2471.084,13.28,0.019,90.0
2022-11-25T02:46:03,42.805,6.029,0.059,-0.006,0.028,98.0,101.0,99.0,13.4,1505.2,329.5,-0.7,1.8,2471.062,13.28,0.059,95.8
2022-11-25T02:49:03,42.805,6.029,0.043,-0.027,0.005,100.0,101.0,100.0,13.3,1505.2,326.1,-0.8,1.8,2471.014,13.28,0.05,122.1
2022-11-25T02:52:03,42.805,6.029,0.045,-0.023,-0.026,99.0,102.0,99.0,13.3,1505.2,336.9,-0.8,1.8,2471.045,13.28,0.05,117.1
2022-11-25T02:55:03,42.805,6.029,0.039,-0.021,-0.003,99.0,104.0,99.0,13.4,1505.2,333.4,-0.7,1.8,2471.064,13.28,0.044,118.3
2022-11-25T02:58:03,42.805,6.029,0.034,0.014,0.051,98.0,101.0,100.0,13.4,1505.2,331.0,-0.8,1.8,2471.036,13.28,0.036,67.6
2022-11-25T03:04:03,42.805,6.029,0.026,-0.017,0.01,98.0,102.0,99.0,13.3,1505.2,333.4,-0.8,1.9,2471.112,13.28,0.031,123.2
2022-11-25T03:07:03,42.805,6.029,0.053,-0.037,-0.013,99.0,101.0,99.0,13.4,1505.2,327.5,-0.8,1.8,2471.108,13.28,0.064,124.9
2022-11-25T03:10:03,42.805,6.029,0.084,-0.004,0.053,98.0,104.0,99.0,13.4,1505.2,316.9,-0.8,1.8,2471.054,13.28,0.084,92.7
2022-11-25T03:13:03,42.805,6.029,0.007,-0.001,0.0,99.0,102.0,99.0,13.4,1505.2,329.7,-0.8,1.8,2471.076,13.28,0.007,98.1
2022-11-25T03:16:03,42.805,6.029,0.018,-0.026,-0.043,99.0,101.0,100.0,13.4,1505.2,321.5,-0.7,1.8,2471.046,13.28,0.031,145.3
2022-11-25T03:19:03,42.805,6.029,-0.013,0.026,0.039,100.0,102.0,99.0,13.3,1505.2,318.6,-0.8,1.8,2471.051,13.28,0.029,333.4
2022-11-25T03:22:03,42.805,6.029,0.009,-0.018,-0.018,99.0,101.0,99.0,13.4,1505.2,331.4,-0.8,1.8,2471.06,13.28,0.02,153.4
2022-11-25T03:25:03,42.805,6.029,-0.036,0.013,-0.004,99.0,102.0,99.0,13.4,1505.2,321.8,-0.7,1.8,2471.024,13.28,0.038,289.9
2022-11-25T03:28:03,42.805,6.029,0.049,-0.028,0.004,99.0,101.0,100.0,13.4,1505.2,329.1,-0.7,1.8,2471.075,13.28,0.056,119.7
2022-11-25T03:31:03,42.805,6.029,0.019,-0.005,0.017,100.0,102.0,99.0,13.4,1505.2,320.9,-0.8,1.8,2471.02,13.28,0.019,104.7
2022-11-25T03:34:03,42.805,6.029,0.073,-0.012,-0.009,100.0,103.0,99.0,13.4,1505.2,320.0,-0.7,1.8,2471.036,13.28,0.073,99.3
2022-11-25T03:37:03,42.805,6.029,0.063,-0.053,-0.009,99.0,101.0,99.0,13.3,1505.2,335.8,-0.7,1.8,2471.06,13.28,0.082,130.1
2022-11-25T03:40:03,42.805,6.029,0.058,-0.033,0.004,100.0,101.0,99.0,13.4,1505.2,328.4,-0.8,1.8,2471.083,13.28,0.066,119.6
2022-11-25T03:43:03,42.805,6.029,0.034,-0.021,-0.02,99.0,103.0,99.0,13.4,1505.2,330.4,-0.8,1.8,2471.045,13.28,0.039,121.7
2022-11-25T03:46:03,42.805,6.029,0.032,-0.002,0.048,102.0,100.0,99.0,13.4,1505.2,328.2,-0.7,1.8,2471.03,13.28,0.032,93.6
2022-11-25T03:49:03,42.805,6.029,0.03,-0.041,-0.036,98.0,103.0,100.0,13.4,1505.2,335.5,-0.7,1.8,2471.053,13.28,0.05,143.8
2022-11-25T03:52:03,42.805,6.029,0.045,-0.013,0.007,99.0,101.0,99.0,13.4,1505.2,325.6,-0.8,1.8,2471.039,13.28,0.046,106.1
2022-11-25T03:55:03,42.805,6.029,0.033,0.001,-0.003,100.0,100.0,99.0,13.4,1505.2,316.3,-0.8,1.8,2471.044,13.28,0.033,88.3
2022-11-25T03:58:03,42.805,6.029,0.047,-0.014,0.041,99.0,102.0,99.0,13.4,1505.2,322.3,-0.7,1.8,2471.052,13.28,0.049,106.6
2022-11-25T04:04:03,42.805,6.029,0.042,-0.018,0.006,99.0,103.0,99.0,13.4,1505.2,317.9,-0.8,1.8,2471.104,13.28,0.045,113.2
2022-11-25T04:07:03,42.805,6.029,0.049,-0.026,0.034,100.0,103.0,99.0,13.4,1505.2,326.3,-0.8,1.9,2471.137,13.28,0.055,117.9
2022-11-25T04:10:03,42.805,6.029,0.064,-0.018,0.032,100.0,102.0,99.0,13.4,1505.2,330.8,-0.8,1.8,2471.064,13.28,0.066,105.7
2022-11-25T04:13:03,42.805,6.029,0.007,-0.006,-0.013,100.0,101.0,99.0,13.4,1505.2,325.3,-0.8,1.8,2471.098,13.28,0.009,130.6
2022-11-25T04:16:03,42.805,6.029,0.019,0.0,0.012,99.0,101.0,99.0,13.4,1505.2,336.1,-0.8,1.8,2471.079,13.28,0.019,90.0
2022-11-25T04:19:03,42.805,6.029,0.031,0.006,0.012,98.0,102.0,100.0,13.4,1505.2,320.9,-0.8,1.8,2471.106,13.28,0.031,79.0
2022-11-25T04:22:03,42.805,6.029,0.053,-0.005,-0.002,99.0,102.0,99.0,13.3,1505.2,319.2,-0.8,1.8,2471.067,13.28,0.053,95.4
2022-11-25T04:25:03,42.805,6.029,0.019,-0.001,0.018,100.0,101.0,99.0,13.3,1505.2,334.8,-0.7,1.8,2471.073,13.28,0.019,93.0
2022-11-25T04:28:03,42.805,6.029,0.039,-0.008,-0.024,99.0,102.0,99.0,13.4,1505.2,326.7,-0.8,1.8,2471.086,13.28,0.039,101.6
2022-11-25T04:31:03,42.805,6.029,0.045,-0.018,0.014,98.0,101.0,100.0,13.4,1505.2,329.6,-0.7,1.8,2471.078,13.28,0.048,111.8
2022-11-25T04:34:03,42.805,6.029,0.0,-0.003,0.029,99.0,100.0,99.0,13.4,1505.2,336.5,-0.8,1.8,2471.107,13.28,0.003,180.0
2022-11-25T04:37:03,42.805,6.029,0.03,0.0,0.005,99.0,100.0,99.0,13.4,1505.2,334.8,-0.8,1.8,2471.072,13.28,0.03,90.0
2022-11-25T04:40:03,42.805,6.029,0.058,-0.015,0.003,100.0,102.0,99.0,13.4,1505.2,323.1,-0.8,1.8,2471.099,13.28,0.059,104.5
2022-11-25T04:43:03,42.805,6.029,0.023,-0.026,-0.014,100.0,102.0,99.0,13.4,1505.2,327.3,-0.7,1.8,2471.125,13.28,0.034,138.5
2022-11-25T04:46:03,42.805,6.029,0.04,-0.009,-0.003,99.0,101.0,101.0,13.4,1505.2,320.5,-0.8,1.8,2471.079,13.28,0.041,102.7
2022-11-25T04:49:03,42.805,6.029,0.07,-0.024,0.022,99.0,102.0,99.0,13.4,1505.2,326.1,-0.8,1.8,2471.079,13.28,0.073,108.9
2022-11-25T04:52:03,42.805,6.029,0.055,-0.018,0.043,100.0,101.0,100.0,13.4,1505.2,331.3,-0.8,1.8,2471.084,13.28,0.057,108.1
2022-11-25T04:55:03,42.805,6.029,0.05,-0.02,-0.002,100.0,101.0,99.0,13.4,1505.2,321.2,-0.8,1.8,2471.083,13.28,0.053,111.8
2022-11-25T04:58:03,42.805,6.029,0.036,-0.016,0.0,100.0,103.0,99.0,13.4,1505.2,319.1,-0.7,1.8,2471.085,13.28,0.039,114.0
2022-11-25T05:04:03,42.805,6.029,0.013,-0.007,0.013,100.0,101.0,99.0,13.3,1505.2,329.2,-0.8,1.8,2471.128,13.28,0.014,118.3
2022-11-25T05:07:03,42.805,6.029,0.049,-0.023,0.031,100.0,102.0,99.0,13.4,1505.2,331.7,-0.8,1.8,2471.115,13.28,0.054,115.1
2022-11-25T05:10:03,42.805,6.029,0.037,-0.019,-0.015,99.0,102.0,99.0,13.4,1505.2,331.3,-0.8,1.8,2471.164,13.28,0.041,117.2
2022-11-25T05:13:03,42.805,6.029,0.04,-0.015,0.015,99.0,101.0,100.0,13.4,1505.2,326.4,-0.8,1.8,2471.113,13.28,0.042,110.6
2022-11-25T05:16:03,42.805,6.029,0.021,-0.009,-0.017,99.0,101.0,100.0,13.4,1505.2,321.7,-0.8,1.8,2471.136,13.28,0.022,113.2
2022-11-25T05:19:03,42.805,6.029,0.043,-0.025,0.001,100.0,101.0,100.0,13.4,1505.2,319.6,-0.7,1.8,2471.123,13.28,0.049,120.2
2022-11-25T05:22:03,42.805,6.029,0.038,-0.014,0.027,99.0,101.0,100.0,13.4,1505.2,321.2,-0.8,1.8,2471.129,13.28,0.04,110.2
2022-11-25T05:25:03,42.805,6.029,0.036,0.001,0.016,101.0,102.0,100.0,13.3,1505.2,319.9,-0.8,1.8,2471.085,13.28,0.036,88.4
2022-11-25T05:28:03,42.805,6.029,0.044,-0.025,-0.007,100.0,101.0,99.0,13.4,1505.2,317.8,-0.8,1.8,2471.154,13.28,0.05,119.6
2022-11-25T05:31:03,42.805,6.029,0.021,-0.012,-0.03,100.0,101.0,100.0,13.3,1505.2,327.6,-0.8,1.8,2471.155,13.28,0.024,119.7
2022-11-25T05:34:03,42.805,6.029,0.004,-0.009,-0.003,101.0,103.0,99.0,13.3,1505.2,320.9,-0.8,1.8,2471.107,13.28,0.009,156.0
2022-11-25T05:37:03,42.805,6.029,0.05,-0.024,0.009,100.0,100.0,101.0,13.3,1505.2,327.7,-0.8,1.8,2471.111,13.28,0.055,115.6
2022-11-25T05:40:03,42.805,6.029,0.034,-0.007,0.019,100.0,101.0,100.0,13.4,1505.2,327.2,-0.8,1.8,2471.108,13.28,0.034,101.6
2022-11-25T05:43:03,42.805,6.029,0.028,-0.028,-0.011,101.0,101.0,100.0,13.4,1505.2,324.9,-0.8,1.8,2471.171,13.28,0.039,135.0
2022-11-25T05:46:03,42.805,6.029,0.024,-0.025,-0.002,101.0,101.0,100.0,13.4,1505.2,326.5,-0.7,1.8,2471.163,13.28,0.034,136.2
2022-11-25T05:49:03,42.805,6.029,0.041,-0.021,0.006,101.0,101.0,100.0,13.3,1505.2,325.0,-0.8,1.8,2471.149,13.28,0.046,117.1
2022-11-25T05:52:03,42.805,6.029,0.026,-0.033,-0.007,101.0,102.0,100.0,13.4,1505.2,324.5,-0.8,1.8,2471.13,13.28,0.042,141.8
2022-11-25T05:55:03,42.805,6.029,0.024,-0.03,-0.011,101.0,101.0,100.0,13.3,1505.2,323.6,-0.7,1.8,2471.182,13.28,0.038,141.3
2022-11-25T05:58:03,42.805,6.029,0.036,-0.017,0.018,102.0,102.0,100.0,13.4,1505.2,326.3,-0.8,1.8,2471.207,13.28,0.039,115.3
2022-11-25T06:04:03,42.805,6.029,0.032,-0.018,0.021,101.0,101.0,100.0,13.4,1505.2,331.3,-0.8,1.8,2471.189,13.28,0.036,119.4
2022-11-25T06:07:03,42.805,6.029,0.044,-0.018,-0.001,100.0,100.0,101.0,13.3,1505.2,328.2,-0.8,1.8,2471.158,13.28,0.047,112.2
2022-11-25T06:10:03,42.805,6.029,0.043,-0.044,-0.013,102.0,101.0,101.0,13.3,1505.2,320.4,-0.8,1.8,2471.166,13.28,0.061,135.7
2022-11-25T06:13:03,42.805,6.029,0.056,-0.015,0.026,101.0,101.0,100.0,13.4,1505.2,323.2,-0.7,1.8,2471.184,13.28,0.057,105.0
2022-11-25T06:16:03,42.805,6.029,0.027,-0.006,-0.003,100.0,102.0,100.0,13.3,1505.2,316.9,-0.8,1.8,2471.196,13.28,0.027,102.5
2022-11-25T06:19:03,42.805,6.029,0.031,-0.03,-0.011,101.0,101.0,100.0,13.4,1505.2,334.7,-0.7,1.8,2471.151,13.28,0.043,134.1
2022-11-25T06:22:03,42.805,6.029,0.016,-0.009,0.028,100.0,101.0,101.0,13.4,1505.2,332.7,-0.7,1.8,2471.219,13.28,0.018,119.4
2022-11-25T06:25:03,42.805,6.029,0.03,-0.043,-0.028,101.0,101.0,100.0,13.3,1505.2,321.2,-0.8,1.8,2471.151,13.28,0.052,145.1
2022-11-25T06:28:03,42.805,6.029,0.018,-0.028,0.004,101.0,102.0,100.0,13.3,1505.2,336.1,-0.8,1.8,2471.148,13.28,0.033,147.3
2022-11-25T06:31:03,42.805,6.029,0.055,-0.016,0.009,101.0,101.0,100.0,13.3,1505.2,328.9,-0.8,1.8,2471.21,13.28,0.057,106.2
2022-11-25T06:34:03,42.805,6.029,0.026,-0.028,0.0,101.0,101.0,100.0,13.3,1505.2,324.3,-0.7,1.8,2471.192,13.28,0.038,137.1
2022-11-25T06:37:03,42.805,6.029,0.012,-0.028,-0.002,101.0,102.0,100.0,13.4,1505.2,329.3,-0.7,1.8,2471.185,13.28,0.03,156.8
2022-11-25T06:40:03,42.805,6.029,0.049,-0.023,0.02,100.0,101.0,100.0,13.4,1505.2,327.6,-0.8,1.8,2471.238,13.28,0.054,115.1
2022-11-25T06:43:03,42.805,6.029,0.035,-0.037,-0.028,101.0,101.0,100.0,13.3,1505.2,330.2,-0.8,1.8,2471.2,13.28,0.05,136.6
2022-11-25T06:46:03,42.805,6.029,0.005,-0.023,0.004,101.0,101.0,100.0,13.4,1505.2,327.5,-0.8,1.8,2471.2,13.28,0.023,167.7
2022-11-25T06:49:03,42.805,6.029,0.005,-0.03,-0.023,101.0,102.0,100.0,13.3,1505.2,328.4,-0.8,1.8,2471.178,13.29,0.03,170.5
2022-11-25T06:52:03,42.805,6.029,0.037,-0.029,0.011,101.0,101.0,101.0,13.4,1505.2,324.0,-0.7,1.8,2471.206,13.28,0.047,128.1
2022-11-25T06:55:03,42.805,6.029,0.029,-0.017,-0.011,101.0,101.0,100.0,13.4,1505.2,321.8,-0.7,1.8,2471.185,13.29,0.033,120.4
2022-11-25T06:58:03,42.805,6.029,0.021,-0.004,0.035,101.0,101.0,100.0,13.4,1505.2,321.0,-0.7,1.8,2471.201,13.28,0.021,100.8
2022-11-25T07:04:03,42.805,6.029,0.049,-0.018,0.03,102.0,102.0,100.0,13.4,1505.2,318.3,-0.8,1.8,2471.26,13.28,0.052,110.2
2022-11-25T07:07:03,42.805,6.029,0.013,-0.035,-0.008,102.0,101.0,99.0,13.4,1505.2,323.2,-0.8,1.8,2471.217,13.28,0.037,159.6
2022-11-25T07:10:03,42.805,6.029,0.012,-0.023,0.049,101.0,101.0,100.0,13.4,1505.2,334.8,-0.8,1.8,2471.265,13.28,0.025,152.4
2022-11-25T07:13:03,42.805,6.029,0.035,-0.019,-0.01,102.0,101.0,100.0,13.4,1505.2,324.5,-0.8,1.8,2471.251,13.28,0.039,118.5
2022-11-25T07:16:03,42.805,6.029,0.037,-0.026,-0.028,101.0,100.0,100.0,13.4,1505.2,322.7,-0.8,1.8,2471.204,13.28,0.045,125.1
2022-11-25T07:19:03,42.805,6.029,0.035,-0.011,0.005,102.0,100.0,101.0,13.4,1505.2,318.4,-0.8,1.8,2471.243,13.28,0.036,107.4
2022-11-25T07:22:03,42.805,6.029,0.017,-0.012,0.006,101.0,101.0,99.0,13.4,1505.2,336.5,-0.8,1.8,2471.257,13.28,0.02,125.2
2022-11-25T07:25:03,42.805,6.029,0.025,-0.005,0.034,101.0,102.0,100.0,13.3,1505.2,318.5,-0.8,1.8,2471.209,13.28,0.025,101.3
2022-11-25T07:28:03,42.805,6.029,0.032,-0.01,0.008,101.0,100.0,101.0,13.3,1505.2,324.1,-0.7,1.8,2471.269,13.28,0.033,107.4
2022-11-25T07:31:03,42.805,6.029,0.045,-0.004,0.029,102.0,102.0,100.0,13.3,1505.2,324.3,-0.8,1.8,2471.223,13.28,0.045,95.1
2022-11-25T07:34:03,42.805,6.029,0.042,-0.009,0.0,100.0,102.0,100.0,13.4,1505.2,321.2,-0.7,1.8,2471.291,13.28,0.042,102.1
2022-11-25T07:37:03,42.805,6.029,0.013,-0.047,-0.08,101.0,102.0,100.0,13.4,1505.2,329.0,-0.8,1.8,2471.23,13.29,0.048,164.5
2022-11-25T07:40:03,42.805,6.029,0.023,-0.013,0.017,101.0,102.0,100.0,13.4,1505.2,322.3,-0.8,1.8,2471.275,13.29,0.026,119.5
2022-11-25T07:43:03,42.805,6.029,0.039,-0.019,0.004,102.0,101.0,100.0,13.4,1505.2,319.8,-0.7,1.8,2471.231,13.28,0.043,116.0
2022-11-25T07:46:03,42.805,6.029,0.038,-0.011,0.015,102.0,99.0,101.0,13.4,1505.2,330.2,-0.7,1.8,2471.233,13.28,0.039,106.1
2022-11-25T07:49:03,42.805,6.029,0.017,-0.015,0.017,102.0,101.0,100.0,13.3,1505.2,333.0,-0.8,1.8,2471.219,13.29,0.022,131.4
2022-11-25T07:52:03,42.805,6.029,0.023,-0.022,0.012,101.0,103.0,101.0,13.4,1505.2,317.4,-0.8,1.8,2471.226,13.29,0.031,133.7
2022-11-25T07:55:03,42.805,6.029,0.017,-0.031,-0.014,100.0,101.0,101.0,13.3,1505.2,323.6,-0.7,1.8,2471.265,13.29,0.035,151.3
2022-11-25T07:58:03,42.805,6.029,0.024,-0.027,-0.027,101.0,103.0,100.0,13.4,1505.2,328.0,-0.8,1.9,2471.231,13.29,0.036,138.4
2022-11-25T08:04:03,42.805,6.029,0.031,-0.026,0.004,101.0,102.0,101.0,13.4,1505.2,333.0,-0.8,1.8,2471.278,13.28,0.04,130.0
2022-11-25T08:07:03,42.805,6.029,0.023,-0.037,-0.031,100.0,101.0,101.0,13.4,1505.2,326.4,-0.8,1.8,2471.3,13.28,0.043,148.1
2022-11-25T08:10:03,42.805,6.029,0.045,-0.002,0.028,100.0,101.0,101.0,13.3,1505.2,320.7,-0.7,1.8,2471.261,13.28,0.045,92.5
2022-11-25T08:13:03,42.805,6.029,0.027,0.009,0.035,102.0,101.0,100.0,13.4,1505.2,336.2,-0.8,1.8,2471.259,13.28,0.028,71.6
2022-11-25T08:16:03,42.805,6.029,0.018,0.0,0.005,101.0,100.0,101.0,13.4,1505.2,319.2,-0.8,1.8,2471.251,13.28,0.018,90.0
2022-11-25T08:19:03,42.805,6.029,0.032,-0.023,0.016,100.0,101.0,101.0,13.4,1505.2,323.8,-0.7,1.8,2471.269,13.28,0.039,125.7
2022-11-25T08:22:03,42.805,6.029,0.018,-0.017,-0.014,101.0,100.0,101.0,13.4,1505.2,319.0,-0.8,1.8,2471.252,13.28,0.024,133.4
2022-11-25T08:25:03,42.805,6.029,0.052,-0.01,0.009,100.0,101.0,99.0,13.4,1505.2,329.4,-0.8,1.8,2471.251,13.29,0.052,100.9
2022-11-25T08:28:03,42.805,6.029,0.038,-0.011,-0.009,101.0,100.0,101.0,13.3,1505.2,330.7,-0.8,1.8,2471.252,13.29,0.039,106.1
2022-11-25T08:31:03,42.805,6.029,0.024,-0.024,-0.041,100.0,102.0,100.0,13.4,1505.2,318.6,-0.8,1.8,2471.251,13.29,0.033,135.0
2022-11-25T08:34:03,42.805,6.029,0.036,-0.003,0.033,100.0,101.0,100.0,13.3,1505.2,325.6,-0.7,1.8,2471.222,13.29,0.036,94.8
2022-11-25T08:37:03,42.805,6.029,0.035,0.001,0.003,101.0,101.0,100.0,13.3,1505.2,319.3,-0.8,1.8,2471.219,13.29,0.035,88.4
2022-11-25T08:40:03,42.805,6.029,0.014,-0.003,0.034,101.0,101.0,100.0,13.4,1505.2,320.1,-0.8,1.8,2471.252,13.29,0.014,102.1
2022-11-25T08:43:03,42.805,6.029,0.018,-0.014,0.006,102.0,102.0,100.0,13.4,1505.2,332.3,-0.8,1.8,2471.283,13.29,0.022,127.9
2022-11-25T08:46:03,42.805,6.029,0.016,-0.023,-0.034,101.0,102.0,100.0,13.4,1505.2,325.4,-0.7,1.8,2471.271,13.29,0.028,145.2
2022-11-25T08:49:03,42.805,6.029,0.033,-0.027,0.008,102.0,103.0,99.0,13.4,1505.2,332.8,-0.8,1.8,2471.262,13.29,0.042,129.3
2022-11-25T08:52:03,42.805,6.029,0.035,0.001,0.01,101.0,101.0,100.0,13.3,1505.2,322.8,-0.8,1.8,2471.242,13.29,0.035,88.4
2022-11-25T08:55:03,42.805,6.029,0.026,-0.036,-0.024,101.0,102.0,101.0,13.4,1505.2,332.8,-0.8,1.9,2471.243,13.29,0.044,144.2
2022-11-25T08:58:03,42.805,6.029,0.013,-0.021,0.021,101.0,102.0,100.0,13.3,1505.2,323.8,-0.8,1.9,2471.264,13.29,0.024,148.2
2022-11-25T09:04:03,42.805,6.029,0.007,-0.009,-0.005,102.0,101.0,101.0,13.4,1505.2,322.2,-0.8,1.8,2471.253,13.28,0.011,142.1
2022-11-25T09:07:03,42.805,6.029,0.035,-0.02,0.017,101.0,103.0,101.0,13.4,1505.2,329.5,-0.7,1.8,2471.289,13.28,0.04,119.7
2022-11-25T09:10:03,42.805,6.029,0.041,-0.034,0.006,101.0,102.0,100.0,13.4,1505.2,330.4,-0.8,1.8,2471.247,13.28,0.053,129.7
2022-11-25T09:13:03,42.805,6.029,0.024,-0.011,0.01,102.0,102.0,101.0,13.4,1505.2,322.8,-0.8,1.8,2471.262,13.28,0.026,114.6
2022-11-25T09:16:03,42.805,6.029,0.008,-0.008,-0.013,101.0,102.0,101.0,13.4,1505.2,317.7,-0.7,1.8,2471.289,13.28,0.011,135.0
2022-11-25T09:19:03,42.805,6.029,-0.007,-0.012,-0.021,101.0,102.0,100.0,13.3,1505.2,324.1,-0.7,1.8,2471.232,13.29,0.013,210.3
2022-11-25T09:22:03,42.805,6.029,0.032,-0.008,0.023,101.0,103.0,100.0,13.4,1505.2,325.2,-0.8,1.8,2471.239,13.29,0.032,104.0
2022-11-25T09:25:03,42.805,6.029,0.005,-0.003,-0.006,101.0,103.0,101.0,13.3,1505.2,324.1,-0.8,1.8,2471.247,13.29,0.005,121.0
2022-11-25T09:28:03,42.805,6.029,0.009,-0.001,-0.007,101.0,101.0,101.0,13.3,1505.2,327.1,-0.7,1.8,2471.256,13.29,0.009,96.3
2022-11-25T09:31:03,42.805,6.029,0.017,-0.014,-0.026,101.0,102.0,101.0,13.4,1505.2,316.8,-0.8,1.8,2471.255,13.29,0.022,129.5
2022-11-25T09:34:03,42.805,6.029,0.026,0.0,-0.013,101.0,101.0,101.0,13.4,1505.2,322.8,-0.8,1.8,2471.26,13.29,0.026,90.0
2022-11-25T09:37:03,42.805,6.029,0.036,-0.004,0.036,102.0,102.0,101.0,13.4,1505.2,335.8,-0.8,1.8,2471.225,13.29,0.036,96.3
2022-11-25T09:40:03,42.805,6.029,0.041,-0.01,-0.018,102.0,101.0,100.0,13.4,1505.2,320.8,-0.8,1.8,2471.22,13.29,0.042,103.7
2022-11-25T09:43:03,42.805,6.029,0.02,0.005,0.034,101.0,102.0,100.0,13.4,1505.2,333.7,-0.7,1.8,2471.258,13.29,0.02,76.0
2022-11-25T09:46:03,42.805,6.029,0.003,-0.02,-0.012,102.0,101.0,101.0,13.4,1505.2,324.6,-0.8,1.8,2471.229,13.29,0.02,171.5
2022-11-25T09:49:03,42.805,6.029,0.023,-0.011,0.002,102.0,101.0,100.0,13.4,1505.2,335.4,-0.7,1.8,2471.215,13.29,0.025,115.6
2022-11-25T09:52:03,42.805,6.029,0.029,-0.002,0.029,101.0,102.0,100.0,13.4,1505.2,326.8,-0.8,1.8,2471.201,13.29,0.029,93.9
2022-11-25T09:55:03,42.805,6.029,0.041,-0.027,0.016,101.0,102.0,100.0,13.4,1505.2,323.2,-0.8,1.8,2471.233,13.29,0.049,123.4
2022-11-25T09:58:03,42.805,6.029,0.021,-0.017,0.023,101.0,102.0,101.0,13.4,1505.2,328.7,-0.8,1.8,2471.21,13.29,0.027,129.0
2022-11-25T10:04:03,42.805,6.029,0.014,0.006,0.028,101.0,102.0,100.0,13.4,1505.2,318.2,-0.8,1.8,2471.228,13.28,0.015,66.8